TimeCDT,TemperatureF,Dew PointF,Humidity,Sea Level PressureIn,VisibilityMPH,Wind Direction,Wind SpeedMPH,Gust SpeedMPH,PrecipitationIn,Events,Conditions,WindDirDegrees,DateUTC
12:15 AM,39.2,31.8,75,30.16,10.0,WNW,12.7,-,N/A,,Clear,300,2013-04-25 05:15:00
12:35 AM,38.3,32.0,78,30.16,10.0,WNW,11.5,-,N/A,,Clear,300,2013-04-25 05:35:00
12:55 AM,37.6,31.8,80,30.16,10.0,WNW,10.4,-,N/A,,Clear,300,2013-04-25 05:55:00
1:15 AM,36.7,31.5,81,30.16,10.0,WNW,8.1,-,N/A,,Clear,300,2013-04-25 06:15:00
1:35 AM,36.0,31.1,82,30.17,10.0,WNW,8.1,-,N/A,,Clear,300,2013-04-25 06:35:00
1:55 AM,34.0,30.0,85,30.17,10.0,West,6.9,-,N/A,,Clear,270,2013-04-25 06:55:00
2:15 AM,33.1,29.8,88,30.17,10.0,West,8.1,-,N/A,,Clear,270,2013-04-25 07:15:00
2:35 AM,32.5,29.3,88,30.18,10.0,West,6.9,-,N/A,,Clear,270,2013-04-25 07:35:00
2:55 AM,32.0,29.3,90,30.18,10.0,West,8.1,-,N/A,,Clear,280,2013-04-25 07:55:00
3:15 AM,31.8,28.9,89,30.18,10.0,West,8.1,-,N/A,,Clear,280,2013-04-25 08:15:00
3:35 AM,31.6,28.8,89,30.18,10.0,West,6.9,-,N/A,,Clear,260,2013-04-25 08:35:00
3:55 AM,32.0,28.9,88,30.18,10.0,West,8.1,-,N/A,,Clear,260,2013-04-25 08:55:00
4:15 AM,32.0,29.1,89,30.19,10.0,West,6.9,-,N/A,,Clear,270,2013-04-25 09:15:00
4:35 AM,31.6,28.8,89,30.18,10.0,West,8.1,-,N/A,,Clear,270,2013-04-25 09:35:00
4:55 AM,31.5,28.4,88,30.18,10.0,West,8.1,-,N/A,,Clear,270,2013-04-25 09:55:00
5:15 AM,31.5,28.6,89,30.20,10.0,West,8.1,-,N/A,,Clear,260,2013-04-25 10:15:00
5:35 AM,31.6,28.4,88,30.20,10.0,West,6.9,-,N/A,,Clear,270,2013-04-25 10:35:00
5:55 AM,30.9,28.0,89,30.20,10.0,West,6.9,-,N/A,,Clear,260,2013-04-25 10:55:00
6:15 AM,30.9,28.0,89,30.21,10.0,West,6.9,-,N/A,,Clear,280,2013-04-25 11:15:00
6:35 AM,30.4,27.9,90,30.22,10.0,West,3.5,-,N/A,,Clear,280,2013-04-25 11:35:00
6:55 AM,30.2,27.5,90,30.22,10.0,West,3.5,-,N/A,,Clear,260,2013-04-25 11:55:00
7:15 AM,31.8,29.3,90,30.23,10.0,West,4.6,-,N/A,,Clear,270,2013-04-25 12:15:00
7:35 AM,33.1,30.2,89,30.24,10.0,West,5.8,-,N/A,,Clear,280,2013-04-25 12:35:00
7:55 AM,34.5,30.9,87,30.24,10.0,West,6.9,-,N/A,,Clear,280,2013-04-25 12:55:00
8:15 AM,36.7,30.9,80,30.25,10.0,West,5.8,-,N/A,,Clear,280,2013-04-25 13:15:00
8:35 AM,38.3,28.9,69,30.25,10.0,NW,4.6,-,N/A,,Clear,310,2013-04-25 13:35:00
8:55 AM,39.4,28.8,66,30.26,10.0,NW,6.9,-,N/A,,Clear,310,2013-04-25 13:55:00
9:15 AM,41.0,27.3,58,30.26,10.0,NNW,6.9,-,N/A,,Clear,330,2013-04-25 14:15:00
9:35 AM,42.1,26.1,53,30.27,10.0,NW,6.9,-,N/A,,Clear,320,2013-04-25 14:35:00
9:55 AM,42.8,24.8,49,30.27,10.0,NNW,4.6,-,N/A,,Clear,330,2013-04-25 14:55:00
10:15 AM,43.9,25.5,48,30.27,10.0,Calm,Calm,-,N/A,,Clear,0,2013-04-25 15:15:00
10:35 AM,45.5,25.0,45,30.27,10.0,West,3.5,-,N/A,,Clear,270,2013-04-25 15:35:00
10:55 AM,46.4,24.1,42,30.27,10.0,NW,3.5,-,N/A,,Clear,310,2013-04-25 15:55:00
11:15 AM,48.2,25.7,42,30.26,10.0,NW,3.5,-,N/A,,Clear,320,2013-04-25 16:15:00
11:35 AM,49.5,25.7,40,30.26,10.0,SW,5.8,-,N/A,,Clear,220,2013-04-25 16:35:00
11:55 AM,50.0,25.7,39,30.26,10.0,WSW,4.6,-,N/A,,Clear,250,2013-04-25 16:55:00
12:15 PM,51.4,24.6,35,30.26,10.0,NW,3.5,-,N/A,,Clear,310,2013-04-25 17:15:00
12:35 PM,52.9,22.5,31,30.26,10.0,West,8.1,-,N/A,,Clear,270,2013-04-25 17:35:00
12:55 PM,54.3,23.4,30,30.24,10.0,West,5.8,-,N/A,,Clear,260,2013-04-25 17:55:00
1:15 PM,55.4,23.2,29,30.24,10.0,WNW,4.6,-,N/A,,Clear,290,2013-04-25 18:15:00
1:35 PM,56.5,22.8,27,30.23,10.0,WSW,9.2,-,N/A,,Clear,250,2013-04-25 18:35:00
1:55 PM,58.1,25.7,29,30.21,10.0,WSW,11.5,16.1,N/A,,Clear,240,2013-04-25 18:55:00
2:15 PM,58.5,24.3,27,30.21,10.0,SW,4.6,9.2,N/A,,Clear,220,2013-04-25 19:15:00
2:35 PM,59.5,25.2,27,30.21,10.0,WSW,6.9,16.1,N/A,,Clear,240,2013-04-25 19:35:00
2:55 PM,61.0,26.1,26,30.20,10.0,SW,13.8,18.4,N/A,,Scattered Clouds,230,2013-04-25 19:55:00
3:15 PM,61.0,25.5,26,30.19,10.0,WSW,12.7,17.3,N/A,,Clear,240,2013-04-25 20:15:00
3:35 PM,61.7,25.3,25,30.18,10.0,SSW,6.9,16.1,N/A,,Clear,200,2013-04-25 20:35:00
3:55 PM,61.7,25.0,25,30.16,10.0,SSW,16.1,-,N/A,,Clear,200,2013-04-25 20:55:00
4:15 PM,62.1,25.2,25,30.16,10.0,SSW,13.8,17.3,N/A,,Clear,210,2013-04-25 21:15:00
4:35 PM,62.8,25.3,24,30.14,10.0,SW,9.2,16.1,N/A,,Clear,220,2013-04-25 21:35:00
4:55 PM,63.0,25.7,24,30.13,10.0,South,15.0,18.4,N/A,,Clear,180,2013-04-25 21:55:00
5:15 PM,64.0,26.2,24,30.13,10.0,SSW,13.8,20.7,N/A,,Clear,200,2013-04-25 22:15:00
5:35 PM,64.4,26.2,24,30.13,10.0,South,15.0,19.6,N/A,,Clear,190,2013-04-25 22:35:00
5:55 PM,63.9,25.9,24,30.13,10.0,South,12.7,-,N/A,,Clear,180,2013-04-25 22:55:00
6:15 PM,64.0,27.0,25,30.12,10.0,South,19.6,23.0,N/A,,Clear,190,2013-04-25 23:15:00
6:35 PM,63.9,27.1,25,30.11,10.0,South,16.1,26.5,N/A,,Clear,180,2013-04-25 23:35:00
6:55 PM,62.8,28.2,27,30.11,10.0,South,17.3,20.7,N/A,,Clear,180,2013-04-25 23:55:00
7:15 PM,61.5,28.4,29,30.11,10.0,South,18.4,-,N/A,,Clear,170,2013-04-26 00:15:00
7:35 PM,60.1,28.9,31,30.10,10.0,South,12.7,-,N/A,,Clear,170,2013-04-26 00:35:00
7:55 PM,59.0,28.9,32,30.10,10.0,SSE,13.8,-,N/A,,Clear,160,2013-04-26 00:55:00
8:15 PM,56.1,31.5,39,30.09,10.0,SSE,10.4,-,N/A,,Clear,150,2013-04-26 01:15:00
8:35 PM,54.5,32.0,42,30.09,10.0,SSE,11.5,-,N/A,,Clear,150,2013-04-26 01:35:00
8:55 PM,53.6,32.0,44,30.09,10.0,SE,10.4,-,N/A,,Clear,140,2013-04-26 01:55:00
9:15 PM,53.8,32.0,44,30.10,10.0,SE,10.4,-,N/A,,Clear,140,2013-04-26 02:15:00
9:35 PM,53.4,32.2,44,30.11,10.0,SE,11.5,-,N/A,,Clear,140,2013-04-26 02:35:00
9:55 PM,52.9,32.4,46,30.11,10.0,SE,11.5,-,N/A,,Clear,140,2013-04-26 02:55:00
10:15 PM,51.6,32.9,49,30.13,10.0,SSE,9.2,-,N/A,,Clear,150,2013-04-26 03:15:00
10:35 PM,50.0,33.1,52,30.13,10.0,SE,9.2,-,N/A,,Clear,140,2013-04-26 03:35:00
10:55 PM,51.3,32.9,50,30.12,10.0,SSE,11.5,-,N/A,,Clear,150,2013-04-26 03:55:00
11:15 PM,51.3,33.4,51,30.12,10.0,SSE,12.7,-,N/A,,Clear,150,2013-04-26 04:15:00
11:35 PM,50.9,33.8,52,30.11,10.0,SSE,12.7,-,N/A,,Clear,150,2013-04-26 04:35:00
11:55 PM,50.9,34.2,53,30.11,10.0,SSE,11.5,-,N/A,,Clear,160,2013-04-26 04:55:00